Location: Newport
(44.6370°N, 124.0520°W)
Time: 08:47:31
(UTC-07:00)

ISS - Pass Details

Date: 07 October 2017
Orbit: 401 x 408 km, 51.6° (Epoch: 22 October)

Event Time Altitude Azimuth Distance (km) Brightness Sun altitude
Rises 19:09:51 0° 290° (WNW) 2,324 1.5 -5.2°
Reaches altitude 10° 19:12:13 10° 306° (NW) 1,466 -0.1 -5.6°
Maximum altitude 19:14:55 23° 1° (N) 918 -2.0 -6.1°
Drops below altitude 10° 19:17:38 10° 56° (ENE) 1,469 -1.5 -6.6°
Enters shadow 19:18:21 - 63° (ENE) 1,715 -1.2 -6.7°
